Location: Newark
(53.7833°N, 9.4833°E)
Time: 20:55:59
(UTC+00:00)

Envisat - Pass Details

Date: 15 December 2019
Orbit: 764 x 766 km, 98.1° (Epoch: 24 January)

Event Time Altitude Azimuth Distance (km) Brightness Sun altitude
Rises 17:52:08 0° 189° (S) 3,223 6.4 -23.7°
Reaches altitude 10° 17:54:35 10° 197° (SSW) 2,302 5.7 -24.0°
Maximum altitude 17:59:16 37° 264° (W) 1,191 4.5 -24.7°
Drops below altitude 10° 18:03:59 10° 332° (NNW) 2,318 5.7 -25.4°
Sets 18:06:29 0° 341° (NNW) 3,249 6.4 -25.8°
